ヒル彗星

420P/Hill (2022)

English version
Home page
Updated on September 18, 2021

---------------------------------------------------------------------

・ プロフィール

符号 420P/2021 E1
検出日 2021年3月11日
検出光度 20.6等
検出者 E. Schwab (Egelsbach, Germany)

・ 軌道要素

Epoch 2022 May 21.0 TT = JDT 2459720.5
T 2022 May 22.48952 TT                                  Rudenko
q   2.7884017            (2000.0)            P               Q
n   0.07573697     Peri.  157.09058     +0.87628172     +0.48107572
a   5.5326190      Node   173.95136     -0.47167850     +0.86775498
e   0.4960069      Incl.   14.50443     -0.09823304     +0.12476956
P  13.0
From 162 observations 2009 Aug. 16-2021 May 18, mean residual 1".0.

・ 光度変化

        m1 = 12.5 + 5 logΔ + 10.0 log r

---------------------------------------------------------------------

軌道要素はM.P.E.C. 2021-L04に掲載されたものです。
光度グラフはComet for Windowsで作成したものです。

---------------------------------------------------------------------

Copyright(C) Seiichi Yoshida (comet@aerith.net). All rights reserved.